Weather History for KINK - January, 2014

Change the Weather History Date:

Monday, January 20, 2014

  Actual Average Record
Temperature  
Mean Temperature 52 °F -  
Max Temperature 73 °F 58 °F 81 °F (2012)
Min Temperature 30 °F 29 °F 11 °F (1940)
Degree Days  
Heating Degree Days 14    
Growing Degree Days 2 (Base 50)    
Moisture  
Dew Point 14 °F    
Average Humidity 26    
Maximum Humidity 59    
Minimum Humidity 6    
Precipitation  
Precipitation 0.00 in - - ()
Sea Level Pressure  
Sea Level Pressure 30.04 in    
Wind  
Wind Speed 10 mph (NNW)    
Max Wind Speed 21 mph    
Max Gust Speed 30 mph    
Visibility 10 miles    
Events      
Averages and records for this station are not official NWS values.
T = Trace of Precipitation, MM = Missing Value Source: NWS Daily Summary

Daily Weather History Graph

Daily Weather History Graph

Search for Another Location

Airport or City:

Trip Planner

Search our weather history database for the weather conditions in past years. The results will help you decide how hot, cold, wet, or windy it might be!

Date:

Astronomy

Jan. 20, 2014 Rise Set
Actual Time 7:51 AM CST 6:16 PM CST
Civil Twilight 7:25 AM CST 6:42 PM CST
Nautical Twilight 6:56 AM CST 7:12 PM CST
Astronomical Twilight 6:26 AM CST 7:41 PM CST
Moon 10:33 PM CST (1/20) 10:10 AM CST (1/20)
Length of Visible Light 11h 16m
Length of Day
10h 24m
Waning Gibbous, 82% of the Moon is Illuminated
Jan 20
Waning Gibbous
Jan 23
Last Quarter
Jan 30
New
Feb 6
First Quarter
Feb 14
Full

Hourly Weather History & Observations

Time (CST) Temp. Windchill Dew Point Humidity Pressure Visibility Wind Dir Wind Speed Gust Speed Precip Events Conditions
12:53 AM 48.0 °F - 17.1 °F 29% 29.97 in 10.0 mi WSW 11.5 mph - N/A   Clear
1:53 AM 46.9 °F - 17.1 °F 30% 29.94 in 10.0 mi WSW 10.4 mph - N/A   Clear
2:53 AM 41.0 °F 37.1 °F 17.1 °F 38% 29.95 in 10.0 mi NW 5.8 mph - N/A   Clear
3:53 AM 36.0 °F 32.1 °F 17.1 °F 46% 29.96 in 10.0 mi NNW 4.6 mph - N/A   Clear
4:53 AM 33.1 °F 28.7 °F 17.1 °F 52% 29.96 in 10.0 mi North 4.6 mph - N/A   Clear
5:53 AM 32.0 °F 27.5 °F 17.1 °F 54% 29.98 in 10.0 mi NNW 4.6 mph - N/A   Clear
6:53 AM 32.0 °F 25.6 °F 17.1 °F 54% 29.99 in 10.0 mi WNW 6.9 mph - N/A   Clear
7:53 AM 30.0 °F 26.5 °F 17.1 °F 59% 30.01 in 10.0 mi North 3.5 mph - N/A   Clear
8:53 AM 41.0 °F - 19.0 °F 41% 30.01 in 10.0 mi Calm Calm - N/A   Clear
9:53 AM 55.0 °F - 17.1 °F 23% 30.00 in 10.0 mi West 5.8 mph - N/A   Clear
10:53 AM 63.0 °F - 14.0 °F 15% 30.00 in 10.0 mi WNW 9.2 mph - N/A   Clear
11:53 AM 70.0 °F - 12.9 °F 11% 29.99 in 10.0 mi WNW 11.5 mph - N/A   Clear
12:53 PM 73.0 °F - 1.9 °F 6% 29.95 in 10.0 mi NW 16.1 mph 25.3 mph N/A   Clear
1:53 PM 73.0 °F - 10.0 °F 9% 29.93 in 10.0 mi NW 18.4 mph 26.5 mph N/A   Clear
2:53 PM 73.0 °F - 12.0 °F 10% 29.95 in 10.0 mi NNW 16.1 mph - N/A   Clear
3:53 PM 73.0 °F - 12.0 °F 10% 29.96 in 10.0 mi North 12.7 mph - N/A   Clear
4:53 PM 73.0 °F - 10.0 °F 9% 30.01 in 10.0 mi NNE 17.3 mph - N/A   Clear
5:53 PM 69.1 °F - 9.0 °F 10% 30.06 in 10.0 mi NE 12.7 mph - N/A   Clear
6:53 PM 60.1 °F - 10.0 °F 14% 30.12 in 10.0 mi NE 8.1 mph - N/A   Clear
7:53 PM 59.0 °F - 12.0 °F 16% 30.19 in 10.0 mi NNE 15.0 mph - N/A   Clear
8:53 PM 55.9 °F - 12.9 °F 18% 30.22 in 10.0 mi NNE 15.0 mph - N/A   Clear
9:53 PM 55.0 °F - 15.1 °F 21% 30.25 in 10.0 mi NE 20.7 mph 29.9 mph N/A   Clear
10:53 PM 52.0 °F - 16.0 °F 24% 30.28 in 10.0 mi NE 17.3 mph - N/A   Clear
11:53 PM 50.0 °F - 17.1 °F 27% 30.31 in 10.0 mi NE 15.0 mph - N/A   Clear